Flag for U.S.A. Weather past 2 weeks in New City, New York, U.S.A.

Now
64 °F

Clear.


Feels Like: 64 °F
Forecast: 62 / 85 °F
Wind: No wind

Location: Westchester County Airport

Current Time: Jul 5, 2015 at 12:34:25 AM

Latest Report: Jul 4, 2015 at 10:56 PM


Visibility: 10 mi

Pressure: 30.00 "Hg

Humidity: 87%

Dew point: 60 °F

Location of New CityLocation

Historic Weather in New City — Graph

°F

New City temperature yesterday

Maximum temperature yesterday: 75 °F (at 5:56 PM)
Minimum temperature yesterday: 64 °F (at 10:56 PM)
Average temperature yesterday: 68 °F

Past Weeks' High & Low Weather Summary

 TemperatureHumidityPressure
High87 °F (Jun 23, 11:56 AM)100% (Jun 20, 8:56 PM)30.12 "Hg (Jun 20, 8:56 PM)
Low56 °F (Jun 27, 10:56 PM)33% (Jul 3, 3:56 PM)29.65 "Hg (Jun 28, 10:56 AM)
Average70 °F71%29.90 "Hg
* Reported Jun 19 10:56 PM — Jul 4 10:56 PM, New City, Weather by CustomWeather, © 2015

Note: Actual official high and low records may vary slightly from our data, if they occured in-between our weather recording intervals... More about our weather records

Advertising

New City weather history for previous 24 hours

 ConditionsComfort  
Time TempWeatherWind HumidityBarometerVisibility
10:56 PM
Sat, Jul 4
64 °FClear.No wind87%30.00 "Hg10 mi
9:56 PM65 °FClear.No wind85%29.99 "Hg10 mi
8:56 PM68 °FPartly sunny.No wind76%29.97 "Hg10 mi
7:56 PM71 °FPartly sunny.No wind63%29.96 "Hg10 mi
6:56 PM73 °FPartly sunny.No wind51%29.94 "Hg10 mi
5:56 PM75 °FPassing clouds.3 mph50%29.93 "Hg10 mi
4:56 PM74 °FPassing clouds.5 mph50%29.93 "Hg10 mi
3:56 PM74 °FPassing clouds.5 mph56%29.94 "Hg10 mi
2:56 PM71 °FLight rain. Broken clouds.5 mph71%29.94 "Hg10 mi
1:56 PM71 °FMore clouds than sun.8 mph68%29.96 "Hg10 mi
12:56 PM70 °FBroken clouds.10 mph76%29.95 "Hg10 mi
11:56 AM71 °FBroken clouds.7 mph61%29.96 "Hg10 mi
10:56 AM70 °FPartly sunny.3 mph71%29.96 "Hg10 mi
9:56 AM69 °FPartly sunny.6 mph76%29.95 "Hg10 mi
8:56 AM67 °FPartly sunny.5 mph87%29.95 "Hg10 mi
7:56 AM67 °FScattered clouds.3 mph81%29.94 "Hg10 mi
6:56 AM65 °FPartly sunny.3 mph85%29.95 "Hg10 mi
5:56 AM65 °FClear.3 mph81%29.94 "Hg10 mi
4:56 AM65 °FPassing clouds.No wind85%29.95 "Hg10 mi
3:56 AM65 °FPassing clouds.No wind85%29.96 "Hg10 mi
2:56 AM65 °FClear.No wind85%29.96 "Hg10 mi
1:56 AM65 °FClear.No wind85%29.98 "Hg10 mi
12:56 AM65 °FClear.3 mph85%29.98 "Hg10 mi
Weather by CustomWeather, © 2015

See weather overviewHow to use our weather pages